Regional Weather Roundup
Issued by NWS

Home | Current Version | Previous Version | Text Only | Print | Product List | Glossary On
Versions: 1 2 3 4 5 6 7 8 9 10 11 12 13 14 15 16 17 18 19 20 21 22 23 24 25 26 27 28 29 30 31 32 33 34 35 36 37 38 39 40 41 42 43 44 45 46 47 48 49 50
000
ASUS45 KPSR 281810
RWRAZ

ARIZONA REGIONAL HOURLY WEATHER ROUNDUP
NATIONAL WEATHER SERVICE TUCSON AZ
1100 AM MST SUN MAY 28 2017

NOTE: FAIR INDICATES FEW OR NO CLOUDS BELOW 12,000 FEET WITH NO
SIGNIFICANT WEATHER AND/OR OBSTRUCTIONS TO VISIBILITY.

AZZ001>003-036-281900-
NORTHWEST ARIZONA

CITY           SKY/WX    TMP DP  RH WIND       PRES   REMARKS
BULLHEAD CITY  SUNNY     91  25   9 N26G32    29.90S
KINGMAN        SUNNY     87  26  11 NW9       30.07F
6HR MIN TEMP:  54; 6HR MAX TEMP:  87;

$$

AZZ004>008-015-016-018-281900-
NORTH CENTRAL ARIZONA

CITY           SKY/WX    TMP DP  RH WIND       PRES   REMARKS
GRAND CANYON   SUNNY     69  20  15 E14G23    30.29S
6HR MIN TEMP:  33; 6HR MAX TEMP:  69;

WILLIAMS       CLEAR     72  23  16 SE14      30.26S
PRESCOTT       SUNNY     79  21  11 SE15G22   30.15S
6HR MIN TEMP:  48; 6HR MAX TEMP:  79;

FLAGSTAFF      SUNNY     67  17  14 E16G24    30.30R
6HR MIN TEMP:  35; 6HR MAX TEMP:  68;

PAYSON         CLEAR     81  21  11 E7G16     30.17S
PAGE           SUNNY     77  23  13 MISG      30.19F
6HR MIN TEMP:  60; 6HR MAX TEMP:  78;

$$

AZZ009>014-017-281900-
NORTHEAST ARIZONA

CITY           SKY/WX    TMP DP  RH WIND       PRES   REMARKS
WINSLOW        SUNNY     80  20  10 E8        30.18F
6HR MIN TEMP:  43; 6HR MAX TEMP:  80;

SAINT JOHNS    SUNNY     78  16   9 VRB5      30.18F
6HR MIN TEMP:  41; 6HR MAX TEMP:  79;

WINDOW ROCK    SUNNY     72  22  15 VRB6      30.28F
6HR MIN TEMP:  35; 6HR MAX TEMP:  72;

SHOW LOW       SUNNY     73  18  12 N6G16     30.22S
$$

AZZ023-281900-
GREATER PHOENIX AREA

CITY           SKY/WX    TMP DP  RH WIND       PRES   REMARKS
PHOENIX        MOSUNNY   90  31  12 CALM      29.89F
6HR MIN TEMP:  72; 6HR MAX TEMP:  91;

BUCKEYE        CLEAR     91  32  12 S3        29.91S
GLENDALE       MOSUNNY   91  32  12 CALM      29.91F
LUKE AFB       SUNNY     91  31  11 CALM      29.89F
6HR MIN TEMP:  68; 6HR MAX TEMP:  91;

DEER VALLEY    SUNNY     90  27  10 W7        29.91F
6HR MIN TEMP:  67; 6HR MAX TEMP:  91;

SCOTTSDALE     SUNNY     91  28  10 SW6       29.93F
6HR MIN TEMP:  67; 6HR MAX TEMP:  91;

MESA-FALCON    SUNNY     91  32  12 VRB6      29.93S
MESA-GATEWAY   SUNNY     90  30  12 CALM      29.93F
CHANDLER       SUNNY     90  30  12 SW7       29.91F
$$

AZZ027-028-281900-
SOUTHWEST MARICOPA COUNTY AND PINAL COUNTY

CITY           SKY/WX    TMP DP  RH WIND       PRES   REMARKS
CASA GRANDE    NOT AVBL
$$

AZZ503-504-507>509-281900-
SOUTHEAST ARIZONA

CITY           SKY/WX    TMP DP  RH WIND       PRES   REMARKS
TUCSON         SUNNY     91  20   7 NE3       30.00F
6HR MIN TEMP:  63; 6HR MAX TEMP:  92;

DAVIS-MONTHAN  SUNNY     88  17   7 CALM      29.99F
6HR MIN TEMP:  60; 6HR MAX TEMP:  88;

NOGALES        SUNNY     87  15   7 VRB3      30.05F
6HR MIN TEMP:  51; 6HR MAX TEMP:  88;

SIERRA VISTA   SUNNY     82  12   7 SE8       30.12F
6HR MIN TEMP:  60; 6HR MAX TEMP:  83;

DOUGLAS        SUNNY     87  12   6 SE17G23   30.08F
6HR MIN TEMP:  47; 6HR MAX TEMP:  87;

SAFFORD        SUNNY     88  16   7 VRB5      30.02S
6HR MIN TEMP:  52; 6HR MAX TEMP:  88;

$$

AZZ020-021-025-026-031-281900-
SOUTHWEST ARIZONA

CITY           SKY/WX    TMP DP  RH WIND       PRES   REMARKS
YUMA           SUNNY     90  43  19 VRB3      29.88F
6HR MIN TEMP:  68; 6HR MAX TEMP:  91;

$$

CAZ031-033-041-043-047-048-061-281900-
SOUTHERN CALIFORNIA

CITY           SKY/WX    TMP DP  RH WIND       PRES   REMARKS
DOWNTOWN L.A.  SUNNY     74  56  53 CALM      30.00F
6HR MIN TEMP:  59; 6HR MAX TEMP:  74;

L.A. AIRPORT   MOSUNNY   67  56  67 W8        30.02F
6HR MIN TEMP:  58; 6HR MAX TEMP:  67;

SAN DIEGO      MOSUNNY   68  55  63 NW9       30.03F
6HR MIN TEMP:  58; 6HR MAX TEMP:  68;

BURBANK        SUNNY     71  50  47 CALM      30.01F
6HR MIN TEMP:  56; 6HR MAX TEMP:  73;

ONTARIO        SUNNY     72  50  45 VRB6      30.01F
6HR MIN TEMP:  55; 6HR MAX TEMP:  72;

RIVERSIDE      SUNNY     73  53  49 CALM      30.01F
6HR MIN TEMP:  54; 6HR MAX TEMP:  73;

PALM SPRINGS   SUNNY     95  28   9 CALM      29.90F
6HR MIN TEMP:  64; 6HR MAX TEMP:  96;

EL CENTRO NAS  SUNNY     93  19   7 CALM      29.88F
6HR MIN TEMP:  63; 6HR MAX TEMP:  93;

IMPERIAL       SUNNY     93  39  15 NW8       29.86F
6HR MIN TEMP:  64; 6HR MAX TEMP:  93;

BLYTHE         SUNNY     92  32  12 CALM      29.88F
6HR MIN TEMP:  65; 6HR MAX TEMP:  92;

NEEDLES        SUNNY     97  21   6 N20       29.91F
6HR MIN TEMP:  72; 6HR MAX TEMP:  97;

$$

NVZ020-UTZ003-281900-
SOUTHERN NEVADA-UTAH

CITY           SKY/WX    TMP DP  RH WIND       PRES   REMARKS
LAS VEGAS      SUNNY     87  19   8 N8G16     30.03F
6HR MIN TEMP:  74; 6HR MAX TEMP:  88;

SALT LAKE CITY MOSUNNY   72  38  29 N7        30.24F
6HR MIN TEMP:  51; 6HR MAX TEMP:  73;

$$

NMZ009-TXZ055-281900-
NEW MEXICO-WEST TEXAS

CITY           SKY/WX    TMP DP  RH WIND       PRES   REMARKS
ALBUQUERQUE    MOSUNNY   71  35  26 E10       30.26F
6HR MIN TEMP:  56; 6HR MAX TEMP:  71;

EL PASO        MOSUNNY   79  33  19 SE9       30.13S
6HR MIN TEMP:  64; 6HR MAX TEMP:  81;

$$


........................KEY........................
SKY/WX - SKY CONDITION/WEATHER
TMP    - TEMPERATURE IN FAHRENHEIT
DP     - DEWPOINT IN FAHRENHEIT
RH     - RELATIVE HUMIDITY IN PERCENT
WIND   - DIRECTION AND SPEED IN MILES PER HOUR (MPH)
VRB    - VARIABLE WIND DIRECTION
PRES   - MEAN SEA LEVEL PRESSURE IN INCHES OF MERCURY
         F - FALLING PRESSURE   R - RISING PRESSURE
         S - STEADY PRESSURE
VSB    - VISIBILITY IN MILES
HX     - HEAT INDEX IN FAHRENHEIT
WCI    - WIND CHILL INDEX IN FAHRENHEIT
TC     - TEMPERATURE IN CELSIUS WHICH IS ALSO KNOWN AS
         TEMPERATURE IN CENTIGRADE
AFB    - AIR FORCE BASE
         LUKE AFB IS LUKE AIR FORCE BASE
         DAVIS-MONTHAN IS DAVIS-MONTHAN AIR FORCE BASE
NAS    - NAVAL AIR STATION
         EL CENTRO NAS IS EL CENTRO NAVAL AIR STATION
N/A    - NOT AVAILABLE




USA.gov is the U.S. government's official web portal to all federal, state and local government web resources and services.